Alma, MI

4:14 PM EST on December 14, 2019 (GMT -0500)
Gratiot Community

Weather History for KAMN - May, 2019

Change the Weather History Date:

Saturday, May 18, 2019

  Actual Average Record
Temperature  
Mean Temperature 61 °F -  
Max Temperature 72 °F 72 °F 92 °F (1962)
Min Temperature 50 °F 46 °F 30 °F (1973)
Degree Days  
Heating Degree Days 4    
Growing Degree Days 11 (Base 50)    
Moisture  
Dew Point 52 °F    
Average Humidity 74    
Maximum Humidity 86    
Minimum Humidity 66    
Precipitation  
Precipitation 0.00 in - - ()
Sea Level Pressure  
Sea Level Pressure 29.89 in    
Wind  
Wind Speed 7 mph (East)    
Max Wind Speed 10 mph    
Max Gust Speed 17 mph    
Visibility 10 miles    
Events Rain    
Averages and records for this station are not official NWS values.
T = Trace of Precipitation, MM = Missing Value Source: NWS Daily Summary

Daily Weather History Graph

Daily Weather History Graph

Search for Another Location

Airport or City:

Astronomy

May. 18, 2019 Rise Set
Actual Time 6:11 AM EDT 8:59 PM EDT
Civil Twilight 5:38 AM EDT 9:32 PM EDT
Nautical Twilight 4:56 AM EDT 10:14 PM EDT
Astronomical Twilight 4:08 AM EDT 11:03 PM EDT
Moon 8:52 PM EDT (5/18) 6:20 AM EDT (5/18)
Length of Visible Light 15h 53m
Length of Day
14h 47m
Full, 100% of the Moon is Illuminated
May 18
Full
May 18
Full
May 26
Last Quarter
Jun 3
New
Jun 10
First Quarter

Hourly Weather History & Observations

Time (EDT) Temp. Dew Point Humidity Pressure Visibility Wind Dir Wind Speed Gust Speed Precip Events Conditions
12:15 AM 52.3 °F 43.9 °F 73% 29.96 in 10.0 mi NE 9.2 mph - N/A   Mostly Cloudy
12:16 AM 52.5 °F 43.9 °F 72% 29.96 in 10.0 mi NE 10.4 mph - N/A   Mostly Cloudy
12:35 AM 53.1 °F 43.7 °F 71% 29.97 in 10.0 mi NE 8.1 mph - N/A   Overcast
12:55 AM 53.6 °F 43.9 °F 70% 29.96 in 10.0 mi NE 9.2 mph - N/A   Mostly Cloudy
1:15 AM 53.6 °F 44.4 °F 71% 29.97 in 10.0 mi NE 6.9 mph - N/A   Mostly Cloudy
1:35 AM 54.0 °F 45.3 °F 73% 29.96 in 10.0 mi ENE 6.9 mph - N/A   Overcast
1:55 AM 54.5 °F 46.0 °F 73% 29.96 in 10.0 mi ENE 9.2 mph - N/A   Overcast
2:15 AM 54.9 °F 46.8 °F 74% 29.96 in 10.0 mi ENE 8.1 mph - N/A   Overcast
2:16 AM 54.9 °F 46.8 °F 74% 29.96 in 10.0 mi ENE 8.1 mph - N/A   Overcast
2:35 AM 55.0 °F 47.3 °F 75% 29.95 in 10.0 mi East 9.2 mph - N/A   Overcast
2:36 AM 55.2 °F 47.3 °F 75% 29.95 in 10.0 mi East 9.2 mph - N/A   Overcast
2:55 AM 55.4 °F 48.0 °F 76% 29.96 in 10.0 mi East 6.9 mph - N/A   Overcast
2:56 AM 55.4 °F 48.2 °F 77% 29.96 in 10.0 mi East 8.1 mph - N/A   Overcast
3:15 AM 55.6 °F 48.7 °F 78% 29.95 in 10.0 mi East 6.9 mph - N/A   Overcast
3:16 AM 55.6 °F 48.7 °F 78% 29.95 in 10.0 mi East 6.9 mph - N/A   Overcast
3:35 AM 55.9 °F 49.1 °F 78% 29.95 in 10.0 mi East 5.8 mph - N/A   Overcast
3:55 AM 55.4 °F 48.4 °F 77% 29.94 in 10.0 mi East 8.1 mph - N/A   Overcast
4:15 AM 55.0 °F 48.2 °F 78% 29.95 in 10.0 mi East 4.6 mph - N/A   Overcast
4:35 AM 54.9 °F 48.2 °F 78% 29.96 in 10.0 mi East 6.9 mph - N/A   Overcast
4:55 AM 54.9 °F 48.2 °F 78% 29.96 in 10.0 mi East 5.8 mph - N/A   Overcast
5:15 AM 54.5 °F 48.4 °F 80% 29.96 in 10.0 mi East 3.5 mph - N/A Rain Light Rain
5:16 AM 54.5 °F 48.4 °F 80% 29.96 in 10.0 mi East 3.5 mph - N/A Rain Light Rain
5:35 AM 54.0 °F 48.7 °F 82% 29.97 in 7.0 mi East 3.5 mph - N/A Rain Rain
5:36 AM 54.0 °F 48.9 °F 83% 29.97 in 7.0 mi East 3.5 mph - N/A Rain Rain
5:55 AM 53.4 °F 49.3 °F 86% 29.97 in 7.0 mi East 5.8 mph - N/A Rain Light Rain
5:56 AM 53.4 °F 49.1 °F 85% 29.97 in 7.0 mi East 6.9 mph - N/A Rain Light Rain
6:15 AM 52.9 °F 48.6 °F 85% 29.97 in 7.0 mi East 8.1 mph - N/A Rain Rain
6:16 AM 52.9 °F 48.6 °F 85% 29.97 in 7.0 mi East 8.1 mph - N/A Rain Light Rain
6:35 AM 52.7 °F 48.7 °F 86% 29.97 in 7.0 mi East 6.9 mph - N/A Rain Rain
6:55 AM 51.8 °F 47.3 °F 85% 29.97 in 10.0 mi ESE 8.1 mph - N/A Rain Light Rain
7:15 AM 51.4 °F 45.0 °F 79% 29.98 in 10.0 mi ESE 6.9 mph - N/A   Overcast
7:35 AM 51.4 °F 45.5 °F 80% 29.99 in 10.0 mi SE 8.1 mph - N/A   Overcast
7:55 AM 50.9 °F 43.0 °F 74% 29.98 in 10.0 mi SE 8.1 mph - N/A   Overcast
7:56 AM 50.9 °F 43.2 °F 75% 29.98 in 10.0 mi SE 9.2 mph - N/A   Overcast
8:15 AM 51.1 °F 43.5 °F 75% 29.97 in 10.0 mi ESE 8.1 mph - N/A   Overcast
8:16 AM 51.1 °F 43.5 °F 75% 29.97 in 10.0 mi ESE 6.9 mph - N/A   Overcast
8:35 AM 51.8 °F 43.0 °F 72% 29.98 in 10.0 mi ESE 4.6 mph - N/A   Overcast
8:36 AM 51.8 °F 43.0 °F 72% 29.98 in 10.0 mi East 5.8 mph - N/A   Overcast
8:55 AM 52.2 °F 43.7 °F 73% 29.97 in 10.0 mi East 6.9 mph - N/A   Overcast
8:56 AM 52.3 °F 43.9 °F 73% 29.97 in 10.0 mi East 5.8 mph - N/A   Overcast
9:15 AM 52.7 °F 43.5 °F 71% 29.97 in 10.0 mi ESE 9.2 mph - N/A   Overcast
9:16 AM 52.7 °F 43.5 °F 71% 29.97 in 10.0 mi ESE 9.2 mph - N/A   Overcast
9:35 AM 52.7 °F 43.0 °F 70% 29.96 in 10.0 mi ESE 10.4 mph 17.3 mph N/A   Overcast
9:55 AM 52.7 °F 42.1 °F 67% 29.97 in 10.0 mi SE 10.4 mph - N/A   Overcast
10:15 AM 53.4 °F 42.8 °F 67% 29.95 in 10.0 mi ESE 10.4 mph - N/A   Overcast
10:35 AM 54.0 °F 42.8 °F 66% 29.94 in 10.0 mi ESE 10.4 mph - N/A   Overcast
10:55 AM 55.2 °F 45.1 °F 69% 29.94 in 10.0 mi ESE 10.4 mph 17.3 mph N/A   Overcast
11:15 AM 55.4 °F 45.9 °F 70% 29.94 in 10.0 mi SE 6.9 mph - N/A   Overcast
11:35 AM 56.5 °F 47.1 °F 71% 29.93 in 10.0 mi ESE 8.1 mph - N/A   Overcast
11:55 AM 57.6 °F 49.1 °F 73% 29.92 in 10.0 mi ESE 10.4 mph - N/A   Overcast
12:15 PM 58.1 °F 49.5 °F 73% 29.91 in 10.0 mi ESE 9.2 mph 16.1 mph N/A   Overcast
12:16 PM 58.1 °F 49.3 °F 72% 29.91 in 10.0 mi ESE 10.4 mph 16.1 mph N/A   Overcast
12:35 PM 59.0 °F 50.2 °F 73% 29.91 in 10.0 mi SE 8.1 mph - N/A   Overcast
12:36 PM 59.0 °F 50.4 °F 73% 29.91 in 10.0 mi ESE 8.1 mph - N/A   Overcast
12:55 PM 59.0 °F 50.7 °F 74% 29.92 in 10.0 mi ESE 6.9 mph - N/A   Overcast
12:56 PM 59.2 °F 50.7 °F 74% 29.93 in 10.0 mi ESE 6.9 mph - N/A   Overcast
1:15 PM 60.1 °F 52.0 °F 75% 29.91 in 10.0 mi SE 5.8 mph - N/A   Overcast
1:16 PM 60.1 °F 52.0 °F 75% 29.91 in 10.0 mi ESE 6.9 mph - N/A   Overcast
1:35 PM 61.9 °F 53.1 °F 73% 29.91 in 10.0 mi ESE 6.9 mph - N/A   Overcast
1:55 PM 62.2 °F 53.4 °F 73% 29.90 in 10.0 mi ESE 4.6 mph - N/A   Overcast
2:15 PM 64.0 °F 55.0 °F 73% 29.89 in 10.0 mi East 5.8 mph - N/A   Overcast
2:35 PM 65.3 °F 55.8 °F 71% 29.88 in 10.0 mi SE 5.8 mph - N/A   Mostly Cloudy
2:55 PM 67.3 °F 57.4 °F 70% 29.87 in 10.0 mi SSE 6.9 mph - N/A   Overcast
2:56 PM 67.5 °F 57.4 °F 70% 29.87 in 10.0 mi SSE 6.9 mph - N/A   Mostly Cloudy
3:15 PM 67.1 °F 57.2 °F 70% 29.86 in 7.0 mi ESE 3.5 mph - N/A   Mostly Cloudy
3:35 PM 68.5 °F 58.1 °F 69% 29.85 in 10.0 mi SSE 6.9 mph - N/A   Mostly Cloudy
3:36 PM 68.4 °F 58.1 °F 70% 29.85 in 10.0 mi SSE 6.9 mph - N/A   Mostly Cloudy
3:55 PM 69.1 °F 59.0 °F 70% 29.84 in 10.0 mi SSE 4.6 mph - N/A   Scattered Clouds
4:15 PM 70.2 °F 59.4 °F 69% 29.83 in 10.0 mi SSE 4.6 mph - N/A   Scattered Clouds
4:16 PM 70.2 °F 59.4 °F 69% 29.83 in 10.0 mi SSE 4.6 mph - N/A   Scattered Clouds
4:35 PM 70.7 °F 59.7 °F 68% 29.82 in 10.0 mi SSE 4.6 mph - N/A   Clear
4:36 PM 70.7 °F 59.7 °F 68% 29.82 in 10.0 mi SSE 5.8 mph - N/A   Clear
4:55 PM 71.2 °F 60.4 °F 69% 29.80 in 10.0 mi SSE 5.8 mph - N/A   Clear
4:56 PM 71.2 °F 60.4 °F 69% 29.80 in 10.0 mi SSE 8.1 mph - N/A   Clear
5:15 PM 72.0 °F 61.0 °F 68% 29.79 in 10.0 mi ESE 8.1 mph - N/A   Clear
5:16 PM 72.1 °F 61.0 °F 68% 29.79 in 10.0 mi ESE 6.9 mph - N/A   Clear
5:35 PM 72.5 °F 61.0 °F 67% 29.79 in 10.0 mi SE 6.9 mph - N/A   Clear
5:55 PM 72.5 °F 61.2 °F 67% 29.78 in 10.0 mi ESE 10.4 mph - N/A   Clear
6:15 PM 72.0 °F 61.0 °F 68% 29.78 in 10.0 mi ESE 6.9 mph - N/A   Clear
6:35 PM 72.0 °F 61.5 °F 70% 29.78 in 10.0 mi ESE 6.9 mph - N/A   Clear
6:55 PM 72.5 °F 61.9 °F 69% 29.78 in 10.0 mi ESE 6.9 mph - N/A   Clear
6:56 PM 72.5 °F 61.9 °F 69% 29.78 in 10.0 mi ESE 6.9 mph - N/A   Clear
7:15 PM 72.5 °F 61.9 °F 69% 29.77 in 10.0 mi East 6.9 mph - N/A   Clear
7:16 PM 72.3 °F 61.9 °F 70% 29.76 in 10.0 mi East 8.1 mph - N/A   Clear
7:35 PM 71.6 °F 61.7 °F 71% 29.77 in 10.0 mi East 6.9 mph - N/A   Clear
7:36 PM 71.6 °F 61.7 °F 71% 29.77 in 10.0 mi East 6.9 mph - N/A   Clear
7:55 PM 70.9 °F 62.1 °F 74% 29.75 in 10.0 mi East 8.1 mph - N/A   Clear
7:56 PM 70.9 °F 62.1 °F 74% 29.75 in 10.0 mi East 9.2 mph - N/A   Clear
8:15 PM 70.3 °F 61.7 °F 74% 29.75 in 10.0 mi ENE 8.1 mph - N/A   Scattered Clouds
8:16 PM 70.3 °F 61.7 °F 74% 29.75 in 10.0 mi ENE 8.1 mph - N/A   Scattered Clouds
8:35 PM 69.8 °F 61.2 °F 74% 29.74 in 10.0 mi East 8.1 mph - N/A   Scattered Clouds
8:55 PM 68.4 °F 58.5 °F 71% 29.75 in 10.0 mi NE 10.4 mph - N/A   Clear
9:15 PM 63.9 °F 54.3 °F 71% 29.78 in 10.0 mi NNE 6.9 mph - N/A   Clear
9:35 PM 62.1 °F 52.7 °F 71% 29.78 in 10.0 mi NNE 8.1 mph - N/A   Scattered Clouds
9:55 PM 61.9 °F 52.7 °F 72% 29.79 in 10.0 mi NNW 5.8 mph - N/A   Mostly Cloudy
9:56 PM 61.7 °F 52.7 °F 72% 29.79 in 10.0 mi North 6.9 mph - N/A   Scattered Clouds
10:15 PM 61.3 °F 52.9 °F 74% 29.80 in 10.0 mi NNE 5.8 mph - N/A   Scattered Clouds
10:16 PM 61.3 °F 52.9 °F 74% 29.80 in 10.0 mi NNE 5.8 mph - N/A   Scattered Clouds
10:35 PM 61.2 °F 52.3 °F 73% 29.81 in 10.0 mi North 6.9 mph - N/A   Clear
10:36 PM 61.0 °F 52.3 °F 73% 29.81 in 10.0 mi North 5.8 mph - N/A   Clear
10:55 PM 59.9 °F 52.2 °F 76% 29.81 in 10.0 mi North 3.5 mph - N/A   Clear
10:56 PM 59.9 °F 52.2 °F 76% 29.81 in 10.0 mi North 3.5 mph - N/A   Clear
11:15 PM 59.4 °F 51.8 °F 76% 29.82 in 10.0 mi Calm Calm - N/A   Clear
11:16 PM 59.2 °F 51.8 °F 77% 29.82 in 10.0 mi Calm Calm - N/A   Clear
11:35 PM 58.6 °F 51.8 °F 78% 29.83 in 10.0 mi North 4.6 mph - N/A   Clear
11:55 PM 57.7 °F 50.9 °F 78% 29.83 in 10.0 mi NNW 3.5 mph - N/A   Clear